This is the latest recevied weather packets stored in our database for station/object SV9TNF-1. If no packets are shown the sender has not sent any weather packets the latest 10 day(s).
| Time | Temp. | Humidity | Pressure | Rain* | Wind** | Luminosity | Snow |
|---|---|---|---|---|---|---|---|
| 1778141153 | 22.78° C | 48% | 1006.4 hPa | 0 mm | 4.92 m/s, 135° | - | - |
| 1778140853 | 22.22° C | 51% | 1006.4 hPa | 0 mm | 5.81 m/s, 119° | - | - |
| 1778140553 | 22.22° C | 51% | 1006.4 hPa | 0 mm | 4.47 m/s, 99° | - | - |
| 1778140253 | 22.22° C | 51% | 1006.4 hPa | 0 mm | 8.05 m/s, 123° | - | - |
| 1778139952 | 22.22° C | 51% | 1006.4 hPa | 0 mm | 4.02 m/s, 106° | - | - |
| 1778139652 | 21.67° C | 49% | 1006.4 hPa | 0 mm | 5.81 m/s, 79° | - | - |
| 1778139352 | 21.67° C | 50% | 1006.4 hPa | 0 mm | 5.81 m/s, 119° | - | - |
| 1778139052 | 21.67° C | 51% | 1006.4 hPa | 0 mm | 4.92 m/s, 122° | - | - |
| 1778138752 | 22.22° C | 49% | 1006.4 hPa | 0 mm | 3.13 m/s, 135° | - | - |
| 1778138452 | 21.67° C | 51% | 1006.4 hPa | 0 mm | 3.13 m/s, 128° | - | - |
| 1778138152 | 22.22° C | 50% | 1006.4 hPa | 0 mm | 1.79 m/s, 114° | - | - |
| 1778137852 | 22.22° C | 48% | 1006.4 hPa | 0 mm | 1.79 m/s, 117° | - | - |
| 1778137552 | 21.67° C | 49% | 1006.4 hPa | 0 mm | 3.13 m/s, 118° | - | - |
| 1778137252 | 21.67° C | 55% | 1006.4 hPa | 0 mm | 1.34 m/s, 109° | - | - |
| 1778136951 | 21.11° C | 58% | 1006.4 hPa | 0 mm | 4.02 m/s, 112° | - | - |
| 1778136651 | 21.11° C | 56% | 1006.4 hPa | 0 mm | 0.89 m/s, 126° | - | - |
| 1778136351 | 20.56° C | 60% | 1006.4 hPa | 0 mm | 5.81 m/s, 131° | - | - |
| 1778136051 | 20.56° C | 58% | 1006.4 hPa | 0 mm | 5.81 m/s, 124° | - | - |
| 1778135751 | 20° C | 64% | 1006.1 hPa | 0 mm | 5.81 m/s, 132° | - | - |
| 1778135451 | 20° C | 63% | 1006.1 hPa | 0 mm | 4.92 m/s, 130° | - | - |
| 1778135151 | 20.56° C | 63% | 1006.1 hPa | 0 mm | 3.13 m/s, 96° | - | - |
| 1778134850 | 20° C | 62% | 1006.1 hPa | 0 mm | 1.34 m/s, 126° | - | - |
| 1778134551 | 20° C | 63% | 1006.1 hPa | 0 mm | 2.24 m/s, 116° | - | - |
| 1778134250 | 19.44° C | 63% | 1006.1 hPa | 0 mm | 0.89 m/s, 121° | - | - |
| 1778133950 | 19.44° C | 64% | 1006.1 hPa | 0 mm | 3.13 m/s, 121° | - | - |
* Rain latest hour (hover to see other rain measurements)
** Current wind speed in m/s (hover to see current wind gust speed)